轨道通信卫星FM03星 (ORBCOMM FM03)

导读

ORBCOMM FM 3是美国轨道通信公司Orbcomm运营的低地球轨道通信卫星,属于轨道通信FM系列卫星,由轨道科学公司OSC研发。该卫星于1998年2月10日发射升空,主要承担低轨通信任务,卫星设计寿命约4年,质量40千克,为全球 Machine-to-Machine M2M物联网通信提供基础设施支持。

Basic Information
目录编号:
25158
目录名称:
ORBCOMM FM 3
国际标识:
1998-007B
轨道中心:
EARTH
卫星名称:
轨道通信卫星FM03星
卫星全名:
轨道通信卫星FM03星 (ORBCOMM FM03)
卫星状态:
在轨 (已飞行10444 天)
发射日期:
1998-02-10 UTC
国别 :
(ORB)
星等 :
--
This satellite is enrolled in the Space Conjunction Data Service (SCDS) and the current flight risk assessment level is: No High Risk
Orbit Information
数据来源 国际轨道数据
星历时间: 2026-09-15T13:17:17+0800
17小时前
查看轨道信息
半长轴: 7151.049km
偏心率: 0.004474
轨道倾角: 107.961°
近地点辐角 174.258°
升交点赤经 351.207°
平近点角 185.908°
近地点: 740.918km
远地点: 804.906km
周期: 100.303分钟
每日圈数: 14.356487
Detailed Information
固有亮度:
8
最大亮度:
6.9
平衡模式:
三轴稳定
覆盖范围:
全球
运营商:
轨道通信公司
运营商所在国:
美国
制造商(研发单位):
轨道ATK公司
制造商所在国:
美国
使用方式:
暂无
Satellite Introduction
轨道通信FM(Orbcomm FM)是一系列低地球轨道通信卫星,由美国卫星通信公司 Orbcomm运营。 截至2015年12月,已有63颗此类卫星绕地球运行。该卫星已退役。
2D Orbit Map
3D Orbit Map
Orbit Altitude Analysis Chart
Orbit Inclination Analysis Chart
Orbit Comprehensive Analysis Chart
View Comprehensive Chart
Conjunction Data List
Event ID Objects TCA Miss Dist (km) Collision Risk Probability Collision Risk Index (CRI) Action
CDM_260912-132002-515803-635527
2026-09-12T
13:20:03+0000
0.697 km
远距离
7.45959E-5 中风险 0.72
CDM_260912-031802-515803-704625
2026-09-12T
03:18:25+0000
2.285 km
极远距离
1.567034E-6 低风险 0.39
CDM_260916-073602-515803-394825
2026-09-16T
07:36:16+0000
2.956 km
极远距离
1.360066E-6 低风险 0.38
Miss Distance Evolution Trend with All Objects Subscribe to Flight Safety Assessment
Collision Probability Evolution Trend with All Objects Subscribe to Flight Safety Assessment